EUTELSAT 8 WEST B

Last updated on Mon Dec 15 2025 00:02:55 GMT+0000 (Coordinated Universal Time)

1 40875U 15039B 25348.27213012 -.00000048 00000+0 00000+0 0 9993 2 40875 0.0667 11.4770 0004244 252.3890 269.3077 1.00271739 37800
UTC large
Height (km)
Speed (km/s)
/
Latitude / Longitude
Inclination (degrees)
Orbital Period (minutes)
Azimuth
Elevation
Range (km)
Doppler Factor

Next 0 passes for location: London (51.5072 / 0.1276)

Sorry there are no passes over London.